Weather History for Kingsville NAS, TX

Change the Weather History Date:

Saturday, April 12, 2014

  Actual Average Record
Temperature  
Mean Temperature 75 °F -  
Max Temperature 86 °F 79 °F 93 °F (2009)
Min Temperature 66 °F 61 °F 45 °F (1997)
Cooling Degree Days 10    
Growing Degree Days 25 (Base 50)    
Moisture  
Dew Point 68 °F    
Average Humidity 80    
Maximum Humidity 97    
Minimum Humidity 58    
Precipitation  
Precipitation 0.00 in - - ()
Sea Level Pressure  
Sea Level Pressure 29.91 in    
Wind  
Wind Speed 13 mph (SE)    
Max Wind Speed 29 mph    
Max Gust Speed 40 mph    
Visibility 10 miles    
Events      
Averages and records for this station are not official NWS values.
T = Trace of Precipitation, MM = Missing Value Source: NWS Daily Summary

Daily Weather History Graph

Daily Weather History Graph

Search for Another Location

Airport:

Trip Planner

Search our weather history database for the weather conditions in past years. The results will help you decide how hot, cold, wet, or windy it might be!

Date:

Astronomy

Apr. 12, 2014 Rise Set
Actual Time 7:09 AM CDT 7:54 PM CDT
Civil Twilight 6:46 AM CDT 8:18 PM CDT
Nautical Twilight 6:18 AM CDT 8:46 PM CDT
Astronomical Twilight 5:49 AM CDT 9:15 PM CDT
Moon 5:45 PM CDT (4/12) 5:23 AM CDT (4/12)
Length of Visible Light 13h 32m
Length of Day
12h 44m
Waxing Gibbous, 93% of the Moon is Illuminated
Apr 12
Waxing Gibbous
Apr 15
Full
Apr 22
Last Quarter
Apr 29
New
May 6
First Quarter

Hourly Weather History & Observations

Time (CDT) Temp. Heat Index Dew Point Humidity Pressure Visibility Wind Dir Wind Speed Gust Speed Precip Events Conditions
12:56 AM 69.1 °F - 66.0 °F 90% 29.96 in 10.0 mi SE 9.2 mph - N/A   Clear
1:56 AM 69.1 °F - 66.9 °F 93% 29.94 in 10.0 mi SE 10.4 mph - N/A   Clear
2:56 AM 70.0 °F - 66.9 °F 90% 29.93 in 10.0 mi SE 8.1 mph - N/A   Clear
3:56 AM 69.1 °F - 66.9 °F 93% 29.92 in 10.0 mi SE 4.6 mph - N/A   Partly Cloudy
4:56 AM 66.9 °F - 66.0 °F 97% 29.91 in 10.0 mi SE 4.6 mph - N/A   Clear
5:56 AM 66.9 °F - 66.0 °F 97% 29.91 in 10.0 mi SE 5.8 mph - N/A   Partly Cloudy
6:13 AM 68.0 °F - 66.9 °F 96% 29.91 in 10.0 mi SE 5.8 mph - N/A   Mostly Cloudy
6:56 AM 68.0 °F - 66.9 °F 96% 29.91 in 10.0 mi SSE 5.8 mph - N/A   Overcast
7:56 AM 71.1 °F - 69.1 °F 93% 29.94 in 10.0 mi SSE 10.4 mph - N/A   Scattered Clouds
8:56 AM 75.0 °F - 70.0 °F 84% 29.95 in 10.0 mi SSE 16.1 mph - N/A   Partly Cloudy
9:20 AM 75.0 °F - 69.1 °F 82% 29.97 in 10.0 mi SSE 12.7 mph 24.2 mph N/A   Mostly Cloudy
9:56 AM 78.1 °F - 68.0 °F 71% 29.96 in 10.0 mi SSE 18.4 mph 25.3 mph N/A   Mostly Cloudy
10:27 AM 79.0 °F - 68.0 °F 69% 29.97 in 10.0 mi South 18.4 mph 26.5 mph N/A   Mostly Cloudy
10:54 AM 80.6 °F 82.7 °F 66.2 °F 61% 29.97 in 10.0 mi SSE 21.9 mph 28.8 mph N/A   Mostly Cloudy
10:56 AM 81.0 °F 83.3 °F 66.9 °F 62% 29.96 in 10.0 mi South 21.9 mph 28.8 mph N/A   Mostly Cloudy
11:56 AM 82.9 °F 86.5 °F 69.1 °F 63% 29.94 in 10.0 mi SE 18.4 mph 26.5 mph N/A   Mostly Cloudy
12:56 PM 82.9 °F 87.0 °F 70.0 °F 65% 29.93 in 10.0 mi SE 18.4 mph - N/A   Mostly Cloudy
1:56 PM 84.9 °F 89.4 °F 70.0 °F 61% 29.90 in 10.0 mi SE 20.7 mph 32.2 mph N/A   Mostly Cloudy
2:56 PM 84.0 °F 87.8 °F 69.1 °F 61% 29.88 in 10.0 mi SE 26.5 mph 33.4 mph N/A   Mostly Cloudy
3:56 PM 84.0 °F 87.0 °F 68.0 °F 58% 29.86 in 10.0 mi SE 28.8 mph 40.3 mph N/A   Partly Cloudy
4:56 PM 81.0 °F 83.3 °F 66.9 °F 62% 29.84 in 10.0 mi SE 24.2 mph 34.5 mph N/A   Clear
5:56 PM 79.0 °F - 66.9 °F 66% 29.84 in 10.0 mi SE 27.6 mph 35.7 mph N/A   Clear
6:56 PM 75.9 °F - 66.9 °F 74% 29.84 in 10.0 mi SE 20.7 mph 29.9 mph N/A   Partly Cloudy
7:56 PM 73.9 °F - 68.0 °F 82% 29.86 in 10.0 mi SE 21.9 mph 31.1 mph N/A   Mostly Cloudy
8:56 PM 73.0 °F - 68.0 °F 84% 29.86 in 10.0 mi SE 15.0 mph 24.2 mph N/A   Overcast
9:56 PM 72.0 °F - 68.0 °F 87% 29.88 in 10.0 mi SE 13.8 mph - N/A   Mostly Cloudy
10:22 PM 72.0 °F - 69.1 °F 91% 29.89 in 10.0 mi SSE 15.0 mph - N/A   Mostly Cloudy
10:56 PM 72.0 °F - 69.1 °F 91% 29.87 in 10.0 mi SSE 13.8 mph - N/A   Overcast
11:16 PM 73.9 °F - 69.1 °F 85% 29.88 in 10.0 mi SSE 13.8 mph - N/A   Scattered Clouds
11:56 PM 72.0 °F - 69.1 °F 91% 29.87 in 10.0 mi SSE 12.7 mph - N/A   Scattered Clouds